カタログに戻る

SL-14 DEB

運用中PO
NORAD 27628·DEBRIS·🇷🇺 Russia

打ち上げ Aug 18, 1987 から Plesetsk Cosmodrome

Loading…

次のパス (今後24時間)

TLE

最新Source: Space-Track

元期: Sep 14, 2026, 05:26 UTC

1 27628U 87068CK  26257.22669741  .00000196  00000-0  13584-3 0  9993
2 27628  82.5112  76.6599 0027034 134.4802 225.8580 13.94098421368475

AllMySatでSL-14 DEBをリアルタイム追跡

Download on the App Store